www.pogodaiklimat.ru

Погода и климат >> Архив погоды >> Австралия >> Западная Австралия >> Остров Тевенард


ПОГОДА на Острове Тевенард

  • Прогноз погоды на Острове Тевенард
  • Монитор погоды на Острове Тевенард

АРХИВ ПОГОДЫ на Острове Тевенард

Время (UTC), дата Ветер
(напр.,м/с)
 
Видим.   Явления Облачность Т
(С)
Тd
(С)
f
(%)
Тe
(С)
Тes
(С)
Комфортность P
(гПа)
Po
(гПа)
Тmin
(С)
Tmax
(С)
R
(мм)
R24
(мм)
S
(см)
19 14.07 Ю 4 н/о н/о +19.3 +17.6 90 +21 +21 комфорт 1021.7 1021.1
22 14.07 В 8 н/о н/о +20.2 +6.9 42 +21 +21 комфорт 1022.1 1021.5
01 15.07 В 9 н/о н/о +21.4 +8.3 43 +23 +23 комфорт 1023.2 1022.6 +18.7
04 15.07 СВ 6 н/о н/о +24.1 +7.3 34 +24 +24 комфорт 1022.5 1021.9
07 15.07 С 5 н/о н/о +23.8 +9.8 41 +25 +25 комфорт 1020.2 1019.6
10 15.07 С 3 н/о н/о +21.4 +11.4 53 +23 +23 комфорт 1020.2 1019.6
13 15.07 Ю 2 н/о н/о +19.0 +16.2 84 +21 +21 комфорт 1021.6 1021.0 +25.3
16 15.07 ЮЗ 6 н/о н/о +20.3 +13.3 64 +22 +22 комфорт 1021.7 1021.1
19 15.07 ЮВ 6 н/о н/о +18.5 +12.5 68 +19 +19 1021.2 1020.6
22 15.07 В 9 н/о н/о +20.3 +7.3 43 +21 +21 комфорт 1021.6 1021.0
01 16.07 В 10 н/о н/о +21.2 +5.5 36 +22 +22 комфорт 1023.3 1022.7 +16.3
04 16.07 СВ 7 н/о н/о +24.0 +5.8 31 +24 +24 комфорт 1022.1 1021.5
07 16.07 С 4 н/о н/о +24.2 +8.2 36 +25 +25 комфорт 1020.1 1019.5
10 16.07 С 4 н/о н/о +21.3 +9.5 47 +23 +23 комфорт 1019.9 1019.3
13 16.07 Ю 2 н/о н/о +16.5 +14.9 90 +17 +17 1021.2 1020.6 +25.1
16 16.07 Ю 5 н/о н/о +19.2 +17.0 87 +21 +21 комфорт 1020.1 1019.5
19 16.07 Ю 4 н/о н/о +17.9 +11.0 64 +18 +18 1018.6 1018.0
22 16.07 В 5 н/о н/о +18.2 +13.9 76 +18 +18 1019.3 1018.7
01 17.07 В 7 н/о н/о +21.3 +7.5 41 +22 +22 комфорт 1021.1 1020.5 +14.5
04 17.07 СВ 6 н/о н/о +24.4 +9.2 38 +25 +25 комфорт 1019.8 1019.2
07 17.07 С 5 н/о н/о +24.3 +11.6 45 +26 +26 жарко 1017.7 1017.1
10 17.07 С 4 н/о н/о +21.3 +12.2 56 +23 +23 комфорт 1017.5 1016.9
13 17.07 СВ 2 н/о н/о +19.2 +14.9 76 +21 +21 комфорт 1018.5 1017.9 +25.4
16 17.07 Ю 3 н/о н/о +16.4 +15.8 96 +16 +16 1018.4 1017.8
19 17.07 ЮЗ 6 н/о н/о +19.3 +13.2 68 +20 +20 1018.1 1017.5
22 17.07 Ю 7 н/о н/о +17.5 +9.7 60 +17 +17 1017.8 1017.2
01 18.07 В 4 н/о н/о +19.1 +13.1 68 +20 +20 1018.8 1018.2 +14.5
04 18.07 СВ 5 н/о н/о +23.7 +9.7 41 +25 +25 комфорт 1017.7 1017.1
07 18.07 С 4 н/о н/о +24.8 +9.1 37 +25 +25 комфорт 1015.3 1014.7
10 18.07 С 3 н/о н/о +21.9 +14.0 61 +25 +25 комфорт 1015.2 1014.6
13 18.07 С 2 н/о н/о +17.6 +17.4 99 +18 +18 1016.3 1015.7 +25.3
16 18.07 Ю 4 н/о н/о +18.7 +18 +18 1016.5 1015.9
19 18.07 Ю 5 н/о н/о +19.1 +15.8 81 +20 +20 1015.6 1015.0
22 18.07 Ю 6 н/о н/о +18.7 +12.9 69 +19 +19 1015.9 1015.3
01 19.07 ЮВ 3 н/о н/о +21.2 +11.5 54 +23 +23 комфорт 1017.0 1016.4 +13.9
04 19.07 Ю 2 н/о н/о +24.9 +6.1 30 +25 +25 комфорт 1016.1 1015.5
07 19.07 З 4 н/о н/о +25.3 +10.7 40 +26 +26 жарко 1015.0 1014.4
10 19.07 З 3 н/о н/о +21.4 +12.3 56 +24 +24 комфорт 1015.3 1014.7
13 19.07 ЮЗ 7 н/о н/о +21.7 +17.3 76 +26 +26 душно 1016.8 1016.2 +25.9
16 19.07 Ю 10 н/о н/о +20.1 +17.1 83 +22 +22 комфорт 1016.9 1016.3
19 19.07 Ю 8 н/о н/о +19.2 +16.2 83 +20 +20 1016.9 1016.3
22 19.07 Ю 9 н/о н/о +18.7 +15.4 81 +19 +19 1017.6 1017.0
01 20.07 Ю 8 н/о н/о +19.6 +14.6 73 +21 +21 комфорт 1019.1 1018.5 +18.4
04 20.07 Ю 9 н/о н/о +22.7 +14.3 59 +26 +26 жарко 1018.0 1017.4
07 20.07 Ю 8 н/о н/о +24.3 +15.2 57 +27 +27 жарко 1016.0 1015.4
10 20.07 Ю 7 н/о н/о +21.9 +14.0 61 +25 +25 комфорт 1016.2 1015.6
13 20.07 Ю 8 н/о н/о +20.7 +11.6 56 +22 +22 комфорт 1017.9 1017.3 +24.8
16 20.07 Ю 11 н/о н/о +19.3 +9.2 52 +19 +19 1017.2 1016.6
19 20.07 Ю 11 н/о н/о +17.8 +8.4 54 +16 +16 1016.0 1015.4
22 20.07 Ю 10 н/о н/о +16.6 +7.0 53 +15 +15 1016.2 1015.6
01 21.07 ЮВ 7 н/о н/о +18.7 +8.4 51 +18 +18 1017.7 1017.1 +16.5
04 21.07 ЮВ 4 н/о н/о +22.6 +8.0 39 +24 +24 комфорт 1017.2 1016.6
07 21.07 С 4 н/о н/о +23.5 +9.1 40 +24 +24 комфорт 1015.1 1014.5
10 21.07 З 4 н/о н/о +20.4 +11.1 55 +22 +22 комфорт 1015.4 1014.8
13 21.07 З 4 н/о н/о +18.6 +16.4 87 +19 +19 1016.8 1016.2 +24.3
16 21.07 Ю 7 н/о н/о +20.2 +7.9 45 +21 +21 комфорт 1016.5 1015.9
19 21.07 ЮВ 7 н/о н/о +18.2 +7.0 48 +18 +18 1016.0 1015.4

 

Местоположение метеостанции Остров Тевенард (Западная Австралия, Австралия): широта -21.45 долгота 115.02 высота над уровнем моря 6 м.

В архиве по умолчанию представлена погода на Острове Тевенард за последнюю неделю. Архивные данные за месяц целиком и за предыдущие месяцы, начиная с января 2011 года, Вы можете получить, выбрав интересующий диапазон дат из раскрывающегося списка и нажав кнопку "Ввод!".


*Определитесь, кто Вы:
робот инопланетянин человек

Внимание! Время в таблицах - всемирное. Для получения местного времени необходимо прибавить поправку, которая равна 8 ч.

Смотрите также архив погоды в соседних городах и на ближайших метеорологических станциях:

Погода в Онслоу (Западная Австралия, Австралия) (27 км)
Погода в Барроу-Айленд (Западная Австралия, Австралия) (75 км)
Погода в Марди (Западная Австралия, Австралия) (103 км)
Погода на Острове Варанас (Западная Австралия, Австралия) (106 км)
Погода в Лермонте (Западная Австралия, Австралия) (130 км)
Погода в Каррате (Западная Австралия, Австралия) (199 км)
Погода в Роборн аэропорту (Западная Австралия, Австралия) (234 км)
Погода в Параберду (Западная Австралия, Австралия) (340 км)
Погода в Порт-Хедленде Apardoo (Западная Австралия, Австралия) (394 км)
Погода в Карнарвоне (Западная Австралия, Австралия) (406 км)

Пояснения к столбцам:

Ветер - указаны скорость ветра в м/с - средняя за 10 мин, порывы в срок и между сроками (в фигурных скобках) и направление, откуда дует ветер: С - северный, СВ - северо-восточный, В - восточный, ЮВ - юго-восточный, Ю - южный, ЮЗ - юго-западный, З - западный, СЗ - северо-западный.
Видимость - горизонтальная дальность видимости в метрах или километрах. При видимости от 1 до 10 км при отсутствии осадков обычно наблюдается дымка, при ухудшении видимости до 1 км и менее - туман. В сухую погоду видимость может ухудшаться дымом, пылью или мглою.
Явления - указаны атмосферные явления, наблюдавшиеся в срок или в последний час перед сроком; фигурными скобками обозначены явления, наблюдавшиеся между сроками (за 1-3 часа до срока); квадратными скобками обозначены град или гололедные отложения с указанием их диаметра в мм.
Облачность - указаны через наклонную черту общая и нижняя облачность в баллах и высота нижней границы облаков в метрах; квадратными скобками обозначены формы облаков: Ci - перистые, Cs - перисто-слоистые, Cc - перисто-кучевые, Ac - высококучевые, As - высокослоистые, Sc - слоисто-кучевые, Ns - слоисто-дождевые, Cu - кучевые, Cb - кучево-дождевые. Подробнее классификацию облаков см. в Атласе облаков (PDF).
T - Температура воздуха - температура, измеренная на высоте 2 м над землей.
Td - Температура точки росы - температура, при понижении до которой содержащийся в воздухе водяной пар достигнет насыщения.
f - Относительная влажность воздуха - влажноcть воздуха, измеренная на высоте 2 м над землей.
Te - Эффективная температура - температура, которую ощущает одетый по сезону человек в тени. Характеристика душности погоды. При расчете учитывается влияние влажности воздуха и скорости ветра на теплоощущения человека.
Tes - Эффективная температура на солнце - температура, которую ощущает человек, с поправкой на солнечный нагрев. Характеристика знойности погоды. Зависит от высоты солнца над горизонтом, облачности и скорости ветра. Ночью, в пасмурную погоду, а также при ветре 12 м/с и более поправка равна нулю.
P - Атмосферное давление - приведенное к уровню моря атмосферное давление.
Po - Атмосферное давление - измеренное на уровне метеостанции атмосферное давление.
Tmin - Минимальная температура - минимум температуры воздуха на высоте 2 м над землей.
Tmax - Максимальная температура - максимум температуры воздуха на высоте 2 м над землей.
R - Количество осадков - Количество выпавших осадков за период времени, мм. При наведении курсора мыши на число - период времени, за который выпало указанное количество осадков.
R24 - Количество осадков - Количество выпавших осадков за 24 часа, мм.
S - Снежный покров - Высота снежного покрова, см. При наведении курсора мыши на число - состояние снежного покрова и степень покрытия местности в баллах.